Total_Precipitation_Accumulation
1.54 1.48 1.40 1.29 1.22 1.25 1.34 1.52 1.79 1.73 1.38 1.10 1.05 1.03 1.04 1.03 1.12 1.04 0.94 1.15 1.20 1.20 1.22 1.24 1.21 1.19 1.29 1.43 1.58 1.85 2.07 2.14 2.10 2.15 2.22 2.24 2.30 2.45
1.45 1.42 1.36 1.29 1.26 1.28 1.32 1.40 1.55 1.69 1.55 1.16 1.00 0.96 0.99 0.99 1.10 0.98 0.94 1.15 1.15 1.13 1.10 1.07 1.08 1.11 1.18 1.30 1.39 1.54 1.80 1.95 1.94 1.93 2.01 2.11 2.21 2.32
1.38 1.36 1.32 1.26 1.26 1.25 1.29 1.34 1.39 1.47 1.46 1.15 0.96 0.94 1.00 1.01 1.04 0.98 0.92 0.89 0.89 0.99 0.97 0.95 0.95 1.00 1.10 1.20 1.28 1.37 1.54 1.68 1.81 1.87 1.96 2.06 2.12 2.14
1.30 1.34 1.33 1.33 1.39 1.39 1.40 1.39 1.37 1.35 1.35 1.23 1.01 0.91 0.88 0.85 0.84 0.87 0.87 0.85 0.80 0.93 0.92 0.89 0.92 0.97 1.05 1.09 1.13 1.20 1.31 1.40 1.53 1.65 1.73 1.84 1.95 2.04
1.19 1.25 1.29 1.33 1.41 1.43 1.42 1.39 1.33 1.27 1.25 1.24 1.09 0.94 0.90 0.85 0.83 0.82 0.81 0.81 0.76 0.85 0.89 0.88 0.91 0.93 0.97 1.06 1.09 1.10 1.12 1.19 1.26 1.38 1.49 1.56 1.65 1.79
1.17 1.19 1.20 1.21 1.21 1.21 1.21 1.20 1.20 1.21 1.21 1.22 1.16 1.02 0.94 0.90 0.91 0.94 0.91 0.81 0.76 0.71 0.78 0.79 0.82 0.84 0.85 0.90 0.96 0.99 1.00 1.07 1.16 1.26 1.40 1.47 1.49 1.60
1.22 1.19 1.13 1.11 1.06 1.03 1.02 1.01 1.02 1.11 1.21 1.25 1.19 1.07 0.95 0.91 0.90 0.86 0.90 0.88 0.83 0.74 0.71 0.69 0.68 0.67 0.69 0.76 0.86 0.96 1.05 1.16 1.31 1.40 1.52 1.63 1.69 1.76
1.08 1.03 1.00 1.00 0.97 1.00 1.00 0.99 1.04 1.16 1.27 1.26 1.14 0.97 0.80 0.76 0.82 0.91 1.01 1.07 0.99 0.74 0.72 0.76 0.73 0.73 0.68 0.70 0.87 0.99 1.11 1.23 1.39 1.47 1.53 1.59 1.67 1.78
0.96 0.88 0.84 0.80 0.81 0.76 0.84 0.92 0.94 1.01 1.06 1.04 0.97 0.82 0.75 0.74 0.94 1.13 1.11 1.06 0.88 0.68 0.73 0.82 0.76 0.78 0.74 0.80 0.95 0.98 1.09 1.22 1.37 1.46 1.54 1.57 1.61 1.71
0.82 0.76 0.70 0.68 0.69 0.72 0.79 0.86 0.77 0.73 0.74 0.70 0.72 0.76 0.78 0.79 0.93 1.15 1.15 1.10 0.93 0.78 0.76 0.87 0.77 0.77 0.74 0.79 0.93 0.91 0.97 1.10 1.26 1.41 1.53 1.56 1.59 1.66
0.70 0.71 0.72 0.66 0.73 0.86 0.87 0.86 0.73 0.61 0.64 0.72 0.77 0.78 0.83 0.83 0.88 1.16 1.30 1.34 1.16 0.87 0.73 0.76 0.69 0.70 0.76 0.81 0.89 0.96 0.96 1.04 1.18 1.31 1.38 1.49 1.59 1.65
0.63 0.67 0.75 0.72 0.80 0.90 0.82 0.79 0.72 0.61 0.59 0.59 0.59 0.59 0.58 0.63 0.77 0.96 1.36 1.65 1.37 1.03 0.69 0.80 0.83 0.89 1.11 0.85 0.83 0.89 0.93 1.04 1.16 1.22 1.26 1.37 1.48 1.47
0.61 0.59 0.62 0.80 0.87 0.86 0.77 0.66 0.70 0.75 0.65 0.55 0.54 0.52 0.51 0.53 0.57 0.65 0.94 1.55 1.76 1.26 0.70 1.14 1.33 1.05 1.23 0.98 0.84 0.91 1.01 1.17 1.25 1.26 1.28 1.32 1.38 1.46
0.56 0.51 0.58 0.78 0.77 0.71 0.65 0.68 0.80 0.77 0.63 0.62 0.60 0.58 0.55 0.51 0.51 0.55 0.65 0.86 1.18 1.26 0.93 1.34 1.83 1.42 1.50 1.26 1.00 1.01 1.08 1.28 1.53 1.59 1.53 1.53 1.47 1.48
0.61 0.69 0.72 0.69 0.62 0.58 0.61 0.67 0.67 0.63 0.69 0.77 0.71 0.61 0.55 0.54 0.56 0.60 0.64 0.71 0.80 0.85 0.90 1.05 1.46 1.54 1.72 1.69 1.33 1.14 1.26 1.39 1.68 1.95 1.85 1.64 1.46 1.40
0.73 0.76 0.70 0.61 0.56 0.56 0.59 0.60 0.57 0.59 0.72 0.81 0.75 0.63 0.58 0.62 0.67 0.75 0.86 0.89 0.98 0.91 0.88 0.94 1.12 1.49 1.64 1.41 1.47 1.39 1.41 1.76 1.94 2.11 1.99 1.73 1.51 1.37
0.80 0.66 0.58 0.55 0.54 0.52 0.51 0.51 0.55 0.62 0.69 0.71 0.76 0.75 0.69 0.68 0.70 0.80 1.02 1.15 1.20 1.04 0.93 0.89 0.92 1.06 1.26 1.38 1.44 1.35 1.46 1.70 1.91 2.07 1.88 1.74 1.65 1.52
0.77 0.64 0.59 0.54 0.52 0.49 0.48 0.51 0.53 0.59 0.67 0.77 0.81 0.82 0.82 0.81 0.81 0.83 1.03 1.22 1.24 1.09 0.99 0.91 0.93 1.03 1.06 1.09 1.29 1.47 1.52 1.70 1.81 1.76 1.50 1.53 1.61 1.47
0.68 0.64 0.60 0.57 0.55 0.52 0.53 0.56 0.56 0.56 0.68 0.83 0.91 0.92 0.93 0.91 0.92 0.98 1.06 1.15 1.13 1.01 0.88 0.82 0.96 1.34 1.39 1.02 0.85 1.18 1.57 1.67 1.55 1.47 1.31 1.33 1.55 1.46
0.58 0.60 0.59 0.58 0.59 0.62 0.64 0.67 0.68 0.68 0.74 0.84 0.90 0.94 1.01 1.08 1.06 1.05 1.09 1.14 1.10 0.92 0.75 0.65 0.77 1.23 1.72 1.53 1.21 1.09 1.22 1.46 1.56 1.58 1.34 1.19 1.28 1.29
0.55 0.55 0.55 0.57 0.63 0.68 0.71 0.75 0.79 0.84 0.88 1.00 1.01 1.02 1.08 1.20 1.14 1.05 1.04 1.00 0.95 0.86 0.76 0.61 0.59 0.84 1.21 1.39 1.24 0.97 1.04 1.18 1.38 1.74 1.69 1.53 1.31 1.13
0.56 0.57 0.56 0.57 0.64 0.71 0.74 0.78 0.85 0.87 0.92 1.02 1.06 1.09 1.14 1.23 1.21 1.05 0.95 0.94 0.86 0.80 0.75 0.61 0.56 0.67 0.93 1.25 1.10 0.84 0.84 0.88 0.93 1.02 1.29 1.67 2.08 2.12
0.61 0.61 0.61 0.64 0.69 0.75 0.79 0.80 0.85 0.88 0.94 1.06 1.11 1.10 1.12 1.10 0.99 0.96 0.93 0.93 0.94 0.87 0.81 0.76 0.69 0.70 0.79 0.88 0.95 0.83 0.73 0.72 0.72 0.79 0.99 1.06 1.20 1.47